Temp
-14 -14 -14 -14 -13 -13 -13 -14 -14 -14 -14 -14 -14 -13 -13 -13 -13 -13 -13 -13 -13 -13 -13 -13 -13 -13 -13 -13 -13 -13 -13 -13 -13 -13 -13 -12 -12 -12 -12 -12 -12 -12
-14 -14 -14 -14 -14 -13 -13 -14 -14 -14 -14 -14 -14 -13 -13 -13 -13 -13 -13 -13 -13 -13 -13 -13 -13 -13 -13 -13 -13 -13 -13 -13 -13 -13 -13 -13 -12 -12 -12 -12 -12 -12
-14 -14 -14 -14 -14 -14 -14 -14 -14 -14 -14 -14 -14 -13 -13 -13 -13 -13 -13 -13 -13 -13 -13 -13 -14 -13 -13 -13 -13 -13 -13 -13 -13 -13 -13 -13 -12 -12 -12 -12 -12 -12
-14 -15 -15 -15 -15 -15 -15 -14 -14 -14 -14 -14 -14 -14 -13 -13 -13 -13 -13 -14 -13 -13 -13 -13 -14 -14 -13 -13 -13 -13 -13 -13 -13 -13 -13 -13 -13 -12 -12 -13 -13 -13
-15 -15 -15 -15 -15 -15 -15 -15 -15 -14 -14 -14 -14 -13 -13 -13 -13 -13 -13 -13 -13 -13 -13 -13 -13 -13 -13 -13 -13 -13 -13 -13 -13 -13 -13 -13 -13 -13 -12 -13 -13 -13
-15 -15 -16 -16 -15 -15 -15 -15 -15 -14 -14 -14 -14 -13 -13 -13 -13 -13 -13 -13 -13 -13 -13 -13 -13 -13 -13 -13 -13 -13 -13 -13 -13 -13 -13 -13 -13 -13 -13 -13 -13 -13
-16 -16 -16 -16 -16 -15 -15 -15 -15 -14 -14 -14 -13 -14 -14 -14 -14 -14 -14 -14 -14 -13 -13 -13 -13 -13 -13 -13 -13 -13 -13 -13 -13 -13 -13 -13 -13 -13 -13 -13 -13 -13
-16 -16 -16 -16 -16 -15 -15 -15 -15 -14 -14 -14 -13 -14 -14 -14 -14 -14 -14 -14 -14 -14 -14 -13 -14 -14 -13 -13 -13 -13 -13 -13 -13 -13 -13 -13 -13 -13 -13 -13 -13 -13
-16 -16 -16 -16 -16 -15 -15 -15 -15 -14 -14 -14 -14 -14 -14 -14 -15 -15 -15 -14 -14 -14 -14 -14 -14 -14 -14 -13 -13 -13 -13 -13 -13 -13 -13 -13 -13 -13 -13 -13 -13 -13
-15 -15 -16 -16 -16 -15 -15 -15 -15 -15 -15 -15 -14 -14 -15 -15 -15 -15 -15 -15 -15 -14 -15 -14 -14 -14 -14 -14 -14 -14 -13 -13 -13 -13 -13 -13 -13 -13 -13 -13 -13 -13
-15 -15 -15 -15 -15 -15 -15 -15 -15 -15 -15 -15 -15 -15 -15 -15 -15 -15 -15 -15 -15 -15 -15 -15 -14 -14 -14 -14 -14 -14 -14 -13 -13 -13 -13 -13 -13 -13 -13 -13 -13 -13
-15 -15 -15 -15 -15 -15 -15 -15 -15 -15 -15 -15 -15 -15 -15 -16 -16 -16 -15 -15 -15 -15 -15 -14 -14 -14 -14 -14 -14 -14 -14 -14 -13 -13 -13 -13 -13 -13 -13 -13 -13 -13
-15 -16 -15 -15 -15 -15 -15 -15 -15 -15 -15 -15 -15 -15 -15 -16 -16 -16 -16 -16 -15 -15 -15 -14 -14 -14 -14 -14 -14 -14 -14 -14 -14 -13 -13 -13 -14 -13 -13 -13 -13 -13
-16 -16 -16 -16 -16 -16 -16 -16 -15 -15 -15 -15 -15 -15 -15 -15 -16 -16 -16 -15 -15 -15 -15 -14 -14 -14 -15 -14 -14 -14 -14 -14 -14 -13 -13 -13 -14 -13 -13 -13 -13 -13
-15 -16 -16 -15 -15 -16 -16 -15 -15 -15 -15 -15 -15 -15 -15 -15 -15 -15 -15 -15 -15 -15 -15 -14 -14 -14 -15 -15 -14 -14 -14 -14 -14 -14 -14 -13 -14 -13 -13 -13 -13 -13
-15 -15 -16 -15 -15 -15 -15 -15 -15 -15 -15 -15 -15 -15 -15 -15 -15 -15 -15 -15 -15 -15 -15 -14 -14 -14 -14 -14 -14 -14 -14 -14 -14 -14 -14 -14 -14 -14 -14 -14 -14 -14
-15 -15 -15 -15 -15 -15 -15 -15 -15 -15 -15 -15 -15 -15 -15 -15 -15 -15 -15 -15 -15 -15 -15 -14 -14 -14 -14 -14 -14 -14 -14 -14 -14 -14 -14 -14 -14 -14 -14 -14 -14 -14
-15 -15 -15 -15 -15 -15 -15 -15 -15 -15 -15 -15 -15 -15 -15 -15 -15 -15 -15 -15 -15 -15 -15 -14 -14 -14 -14 -14 -14 -14 -14 -14 -14 -14 -14 -14 -14 -14 -14 -14 -14 -14
-15 -15 -15 -15 -15 -15 -15 -15 -15 -15 -15 -15 -15 -15 -15 -15 -15 -15 -15 -15 -14 -14 -15 -14 -14 -14 -14 -14 -14 -14 -14 -14 -14 -14 -14 -14 -14 -14 -14 -14 -14 -14
-15 -15 -15 -15 -15 -15 -15 -15 -15 -15 -15 -15 -15 -15 -15 -15 -15 -15 -15 -14 -14 -14 -14 -14 -14 -14 -14 -14 -14 -14 -14 -14 -14 -14 -14 -14 -14 -14 -14 -14 -14 -14
-16 -16 -16 -15 -15 -15 -15 -15 -15 -15 -15 -15 -15 -15 -15 -15 -15 -15 -15 -14 -14 -14 -14 -14 -14 -14 -14 -14 -14 -14 -14 -14 -14 -14 -14 -14 -14 -14 -14 -14 -14 -14
-16 -16 -16 -16 -16 -16 -16 -15 -15 -15 -15 -15 -15 -15 -15 -15 -15 -15 -15 -15 -14 -14 -14 -14 -14 -14 -14 -14 -14 -14 -14 -14 -14 -14 -14 -14 -14 -14 -14 -14 -14 -14
-15 -16 -16 -16 -16 -16 -16 -16 -15 -15 -15 -15 -15 -15 -15 -15 -15 -15 -15 -15 -15 -14 -14 -14 -14 -14 -14 -14 -14 -14 -14 -14 -14 -14 -14 -14 -14 -14 -14 -15 -14 -14
-15 -15 -16 -16 -16 -16 -16 -16 -16 -15 -15 -15 -15 -15 -15 -15 -15 -15 -15 -15 -15 -15 -14 -14 -14 -14 -14 -14 -14 -14 -14 -14 -14 -14 -14 -14 -14 -14 -14 -15 -14 -14
-15 -15 -16 -16 -16 -16 -16 -16 -16 -16 -15 -15 -15 -15 -15 -15 -15 -15 -15 -15 -15 -15 -14 -14 -14 -14 -14 -14 -14 -14 -14 -14 -14 -14 -14 -14 -14 -14 -14 -15 -15 -14
-15 -15 -16 -16 -16 -16 -16 -16 -16 -16 -16 -15 -15 -15 -15 -15 -15 -15 -15 -15 -15 -15 -15 -14 -14 -14 -14 -14 -13 -14 -14 -14 -15 -15 -14 -14 -15 -14 -14 -15 -15 -15
Height
5780 5779 5777 5777 5776 5776 5775 5774 5774 5774 5774 5774 5773 5773 5773 5773 5774 5775 5776 5777 5778 5779 5779 5778 5777 5776 5776 5777 5779 5781 5782 5782 5783 5784 5785 5786 5788 5789 5791 5791 5792 5794
5775 5774 5773 5772 5771 5771 5770 5770 5770 5770 5771 5771 5771 5770 5770 5770 5770 5770 5772 5773 5774 5775 5776 5776 5775 5774 5774 5775 5775 5777 5778 5778 5779 5781 5782 5783 5785 5786 5787 5788 5789 5791
5769 5768 5768 5767 5767 5766 5766 5765 5765 5767 5767 5767 5767 5767 5767 5767 5767 5767 5768 5768 5769 5770 5772 5773 5773 5772 5771 5772 5772 5773 5775 5775 5776 5778 5779 5780 5781 5782 5783 5784 5786 5788
5765 5764 5763 5763 5763 5762 5762 5762 5762 5762 5764 5764 5763 5762 5764 5765 5765 5765 5765 5765 5765 5766 5767 5769 5769 5769 5768 5769 5769 5770 5772 5772 5773 5775 5776 5777 5778 5779 5779 5781 5783 5784
5761 5761 5760 5760 5759 5759 5759 5758 5758 5759 5760 5760 5759 5758 5759 5760 5761 5761 5761 5761 5762 5763 5764 5764 5765 5766 5766 5766 5766 5767 5769 5769 5770 5771 5772 5773 5774 5775 5776 5777 5779 5780
5759 5758 5758 5758 5757 5757 5756 5756 5755 5755 5756 5756 5755 5755 5755 5756 5756 5757 5757 5757 5758 5759 5760 5760 5761 5762 5763 5763 5763 5764 5765 5766 5767 5767 5769 5770 5770 5772 5773 5774 5775 5776
5757 5757 5756 5756 5755 5754 5754 5753 5753 5752 5752 5752 5751 5751 5751 5751 5752 5752 5752 5753 5754 5755 5756 5756 5757 5758 5759 5759 5760 5761 5762 5763 5763 5764 5765 5766 5767 5768 5769 5770 5771 5772
5756 5755 5754 5754 5753 5752 5752 5751 5750 5749 5748 5747 5747 5747 5747 5747 5748 5748 5748 5749 5750 5750 5751 5752 5753 5754 5755 5755 5757 5758 5758 5759 5760 5760 5761 5763 5764 5765 5766 5766 5767 5769
5754 5753 5752 5751 5751 5750 5749 5748 5747 5746 5745 5744 5743 5743 5742 5742 5743 5743 5744 5745 5746 5747 5747 5747 5748 5749 5750 5751 5752 5754 5754 5755 5755 5756 5757 5759 5760 5761 5762 5763 5763 5765
5752 5751 5750 5749 5748 5747 5746 5745 5744 5743 5741 5740 5740 5739 5739 5739 5739 5739 5740 5741 5742 5743 5743 5744 5744 5745 5747 5747 5748 5750 5750 5751 5751 5752 5754 5755 5756 5757 5758 5759 5760 5762
5750 5749 5748 5747 5745 5744 5743 5742 5741 5740 5739 5738 5737 5736 5736 5736 5736 5736 5736 5737 5738 5739 5740 5741 5742 5742 5743 5744 5745 5746 5746 5747 5748 5749 5751 5752 5752 5753 5754 5755 5757 5758
5748 5747 5746 5745 5743 5742 5740 5739 5738 5737 5737 5736 5735 5734 5734 5734 5734 5734 5734 5734 5735 5736 5736 5737 5738 5739 5739 5740 5741 5742 5743 5743 5744 5746 5747 5748 5748 5749 5750 5752 5753 5755
5745 5744 5743 5742 5741 5740 5738 5737 5735 5734 5734 5733 5733 5732 5732 5732 5732 5732 5731 5731 5732 5732 5733 5734 5735 5735 5736 5736 5737 5738 5739 5739 5741 5742 5743 5743 5744 5745 5746 5748 5749 5751
5742 5741 5740 5739 5739 5738 5737 5735 5733 5732 5731 5730 5730 5729 5729 5729 5729 5729 5729 5729 5729 5729 5729 5730 5731 5731 5732 5733 5734 5735 5735 5736 5737 5738 5739 5739 5739 5741 5742 5744 5745 5747
5739 5738 5737 5736 5736 5735 5734 5733 5732 5730 5729 5728 5727 5727 5726 5726 5726 5726 5726 5726 5726 5726 5726 5726 5727 5728 5728 5729 5730 5731 5732 5732 5733 5734 5735 5735 5736 5737 5738 5739 5741 5743
5735 5735 5734 5733 5733 5732 5732 5730 5729 5728 5727 5726 5725 5724 5724 5723 5723 5723 5723 5723 5722 5723 5723 5723 5723 5724 5725 5726 5726 5728 5728 5729 5729 5730 5731 5732 5732 5733 5734 5735 5737 5739
5732 5731 5730 5730 5730 5729 5728 5727 5726 5725 5724 5723 5722 5721 5721 5720 5719 5719 5719 5719 5719 5719 5719 5719 5720 5720 5721 5722 5723 5725 5725 5725 5725 5726 5727 5728 5729 5729 5731 5732 5733 5735
5728 5727 5727 5726 5726 5725 5725 5724 5723 5722 5721 5720 5718 5718 5717 5716 5715 5715 5715 5715 5714 5714 5715 5715 5716 5717 5717 5718 5720 5721 5720 5720 5721 5722 5723 5724 5725 5726 5727 5728 5730 5731
5724 5723 5723 5722 5722 5721 5720 5719 5719 5718 5717 5716 5715 5714 5713 5712 5710 5710 5709 5710 5710 5710 5711 5711 5711 5712 5712 5713 5714 5716 5716 5715 5716 5718 5719 5719 5720 5722 5723 5724 5726 5727
5720 5719 5718 5718 5717 5717 5716 5715 5714 5714 5714 5713 5711 5710 5709 5708 5706 5705 5704 5704 5704 5705 5706 5706 5707 5707 5706 5707 5709 5711 5712 5711 5711 5712 5714 5715 5716 5717 5719 5720 5721 5722
5716 5715 5714 5713 5712 5712 5711 5710 5709 5709 5709 5709 5708 5707 5705 5704 5702 5701 5699 5699 5699 5700 5701 5701 5702 5702 5702 5703 5705 5707 5708 5707 5706 5707 5710 5710 5711 5713 5714 5715 5716 5718
5711 5710 5710 5709 5708 5707 5706 5705 5704 5704 5704 5704 5703 5703 5701 5700 5698 5697 5695 5694 5694 5695 5696 5696 5697 5697 5698 5699 5701 5702 5703 5702 5702 5703 5705 5705 5706 5708 5710 5711 5712 5713
5706 5705 5705 5704 5704 5702 5701 5700 5699 5699 5699 5699 5699 5698 5697 5696 5694 5693 5691 5690 5690 5690 5691 5692 5692 5692 5693 5695 5696 5697 5698 5698 5698 5700 5700 5701 5702 5703 5705 5706 5707 5709
5701 5701 5700 5699 5699 5699 5698 5696 5695 5694 5693 5694 5694 5694 5693 5692 5690 5688 5687 5686 5686 5686 5687 5687 5687 5688 5690 5690 5691 5691 5693 5693 5694 5695 5696 5697 5697 5698 5701 5702 5703 5704
5696 5695 5695 5694 5694 5694 5694 5693 5691 5690 5688 5688 5689 5689 5689 5688 5686 5685 5683 5682 5681 5681 5682 5683 5684 5685 5686 5686 5685 5686 5687 5689 5689 5689 5691 5692 5693 5694 5696 5698 5699 5700
5690 5690 5689 5689 5688 5689 5689 5688 5688 5687 5685 5684 5683 5684 5684 5684 5682 5681 5680 5679 5678 5677 5678 5679 5680 5680 5680 5680 5680 5680 5681 5683 5683 5683 5685 5687 5689 5690 5692 5694 5695 5695
Wind_Speed
34 35 35 35 36 37 40 41 40 38 37 36 36 38 38 35 35 34 31 29 29 29 30 31 32 33 33 34 31 27 26 26 26 26 28 28 29 29 27 25 26 26
35 37 38 38 38 38 40 41 39 37 37 36 36 38 39 37 36 36 34 32 32 31 31 31 32 33 32 32 33 30 28 28 28 28 30 30 29 29 28 26 26 26
35 36 37 38 38 38 38 39 39 36 34 35 36 36 36 37 36 36 35 34 35 36 34 33 32 33 32 32 33 32 31 32 32 32 32 32 30 29 29 28 27 27
31 32 33 34 35 35 35 35 36 34 31 32 35 35 34 34 35 35 34 35 36 38 38 36 34 34 34 33 33 33 33 34 34 33 33 33 31 30 30 29 28 28
27 27 27 28 29 30 30 31 32 32 31 32 35 36 34 32 32 33 33 34 36 38 39 39 37 36 36 35 33 33 33 34 34 34 33 32 31 31 31 30 28 29
24 24 24 24 25 26 26 27 30 32 33 33 36 38 36 33 32 33 33 34 35 36 38 39 39 37 37 36 35 33 33 33 34 35 33 32 32 32 31 30 29 29
24 24 24 24 24 25 25 25 27 30 33 34 35 36 36 35 33 33 34 33 34 35 36 38 39 38 37 36 35 33 34 34 34 34 33 32 33 33 31 30 30 30
23 24 25 25 25 26 25 26 26 28 30 31 31 32 34 36 34 33 34 33 33 34 35 36 37 37 36 36 34 32 32 33 33 33 33 33 34 33 32 32 32 31
22 23 24 25 26 26 26 26 26 27 27 26 26 27 30 33 32 31 32 32 32 33 33 33 34 34 34 35 34 32 30 30 30 32 33 33 33 32 32 33 33 32
21 22 23 24 25 25 25 24 24 24 23 22 23 24 26 28 29 29 30 31 31 32 33 33 33 34 34 34 33 32 29 28 29 32 32 32 32 32 33 33 33 33
22 22 23 24 24 24 24 24 23 23 21 21 21 23 24 25 27 28 30 30 30 31 32 33 33 34 34 33 33 31 30 29 30 31 30 30 32 33 33 33 33 33
22 22 23 23 24 24 24 24 24 23 22 22 22 22 23 24 25 27 28 29 29 29 30 31 32 34 34 32 31 30 30 30 30 30 29 30 33 33 33 34 34 33
23 24 24 23 23 23 23 24 24 24 24 23 23 23 24 24 24 25 26 28 28 28 29 29 30 32 32 31 30 30 31 31 30 29 30 31 32 33 33 34 34 35
24 24 24 24 23 23 22 23 23 24 25 24 24 24 25 25 25 25 26 28 29 29 29 30 29 29 30 30 31 31 32 32 31 30 30 31 32 33 34 34 34 35
24 24 25 25 24 24 23 23 23 24 25 25 25 25 26 26 26 27 27 28 30 31 31 31 30 29 29 30 30 31 33 33 33 33 32 32 32 33 34 34 34 34
24 24 25 25 26 25 25 25 24 24 24 25 26 26 27 27 28 28 28 28 30 32 33 32 32 31 29 29 30 31 32 33 34 34 33 33 33 33 33 34 33 34
24 25 26 26 27 26 26 27 27 26 26 26 26 27 27 28 29 29 29 30 30 32 33 33 33 31 30 30 30 31 32 33 34 34 34 33 33 34 33 33 33 34
27 27 28 28 28 28 28 28 28 28 28 27 28 28 28 29 30 30 30 31 31 32 33 34 33 32 32 32 32 32 34 36 35 34 34 34 34 34 32 32 33 34
30 30 30 30 30 31 31 30 29 29 29 29 29 30 30 30 31 31 31 31 32 33 33 34 34 33 34 34 33 34 36 37 37 35 35 34 35 36 34 33 34 36
32 32 32 32 32 32 32 32 31 30 30 30 30 30 30 31 31 32 32 31 32 33 33 34 35 35 36 36 35 36 37 38 39 38 36 35 36 37 37 36 36 37
33 32 31 32 32 32 32 33 33 32 31 30 30 30 30 31 31 31 32 32 32 33 34 35 36 37 38 37 36 37 37 38 40 39 37 37 38 38 38 39 39 39
33 32 32 32 32 32 32 33 34 34 32 31 31 30 30 30 30 30 30 31 32 32 33 35 37 39 38 37 37 38 38 38 40 39 39 39 39 39 39 38 39 38
35 34 34 33 32 32 32 33 35 36 35 33 31 31 30 29 30 29 28 29 30 30 31 34 36 38 38 37 37 37 37 37 37 37 38 39 39 39 39 38 36 34
37 37 36 35 34 33 33 33 34 36 37 35 32 31 30 30 30 29 26 26 28 29 30 32 35 36 36 37 38 38 37 37 36 37 39 39 39 40 39 38 36 34
40 40 40 38 37 35 34 33 33 35 38 37 35 33 31 30 31 29 25 23 25 27 29 31 33 34 35 37 38 38 38 36 35 38 40 40 39 40 40 39 37 35
43 43 42 41 39 36 35 34 33 33 35 37 37 36 33 31 32 32 29 25 24 26 28 30 32 34 38 41 41 41 41 39 38 41 41 39 39 40 40 40 38 35
Wind_Direction
270 270 269 266 263 265 267 267 266 267 269 270 266 261 261 261 257 253 254 254 253 252 251 251 250 251 251 250 249 247 244 242 240 239 240 240 242 244 247 248 247 247
273 269 266 265 265 267 268 267 266 267 269 269 268 264 263 264 262 258 257 257 257 256 254 253 252 252 254 252 251 251 249 246 242 241 243 244 244 245 247 247 247 246
277 270 265 266 268 269 268 266 266 268 268 267 268 266 265 265 266 263 260 260 260 259 258 256 253 253 254 253 252 251 251 249 246 244 245 245 246 246 246 245 245 245
278 272 267 266 267 268 268 266 266 268 266 264 265 264 263 264 265 265 264 263 262 261 260 259 256 253 254 254 253 252 251 251 249 247 246 247 246 245 245 245 245 245
276 272 268 266 266 267 268 269 269 268 265 262 261 261 259 258 260 262 262 262 262 262 261 260 258 256 255 255 254 253 252 252 251 250 248 247 245 245 245 245 243 243
274 273 271 269 269 270 272 275 275 273 269 263 260 259 258 255 254 254 254 256 259 260 261 260 259 258 256 256 255 254 253 252 252 252 248 245 245 246 246 244 241 240
272 271 271 273 274 276 277 279 280 279 275 268 261 258 256 255 254 252 252 252 255 258 260 259 258 258 257 256 255 254 254 253 253 252 248 245 244 245 245 243 240 238
273 272 273 276 279 280 281 281 281 281 281 275 266 258 254 254 254 253 252 252 254 257 258 256 256 257 258 257 256 254 253 254 254 251 247 245 244 242 242 242 240 239
277 277 278 280 281 282 281 280 279 281 284 281 271 259 253 251 251 251 252 254 256 258 258 255 254 256 258 258 256 254 254 255 255 251 248 245 242 240 241 242 242 241
283 283 283 283 284 284 284 282 281 283 285 284 276 265 257 251 248 250 253 255 257 258 257 253 253 256 258 257 255 254 253 253 251 250 247 245 243 241 240 242 243 242
287 287 286 287 287 288 287 285 284 285 286 286 282 276 269 261 255 253 255 256 256 257 256 254 253 254 255 255 253 252 252 250 247 245 244 243 244 243 242 242 243 243
286 286 287 288 289 290 291 289 288 286 286 286 285 283 280 273 264 256 254 254 253 254 257 256 253 251 251 251 250 250 251 251 248 245 242 243 244 245 244 243 243 244
286 286 287 288 289 290 291 291 290 289 288 286 285 284 283 279 272 263 255 253 253 254 256 256 253 249 248 247 247 248 249 250 250 246 244 245 246 246 246 246 245 244
284 285 286 287 287 288 289 290 289 289 288 286 284 282 281 280 278 272 264 258 256 256 256 256 253 249 248 248 247 247 247 249 250 249 246 246 248 248 249 250 248 245
281 283 285 286 286 287 287 287 286 286 286 285 283 281 279 278 276 274 271 264 258 256 257 256 252 250 251 250 246 246 247 248 250 251 250 250 250 251 250 250 249 244
280 282 284 286 286 286 286 286 285 284 284 284 283 281 279 277 274 272 270 266 260 256 254 255 253 252 251 248 245 248 251 251 252 253 252 252 252 250 248 248 245 240
279 281 283 285 286 286 287 286 286 285 285 285 285 284 281 278 274 270 268 265 261 257 253 252 252 251 250 248 246 248 252 254 255 254 253 252 250 248 246 245 243 239
278 280 282 284 285 286 286 286 286 286 285 286 285 285 284 281 277 272 268 264 261 258 254 251 251 252 252 250 249 250 254 255 255 254 254 250 247 245 245 245 243 241
277 279 280 282 283 285 286 286 286 285 285 285 284 284 284 282 280 275 270 265 261 258 255 251 251 252 252 251 251 253 255 256 255 254 253 250 244 242 243 244 243 242
276 277 279 281 282 283 285 286 286 286 285 284 284 283 282 281 280 276 271 266 261 258 255 253 251 251 251 252 253 253 254 255 255 253 252 249 244 241 242 243 243 242
276 277 278 279 280 282 283 285 286 287 286 285 284 284 284 283 281 276 270 266 262 258 256 254 252 252 252 251 251 252 252 253 254 253 251 249 245 241 241 241 239 239
277 278 278 278 280 282 283 284 286 287 288 287 286 286 285 285 286 282 272 264 261 259 257 256 255 255 254 254 252 251 250 251 253 252 250 248 244 241 240 239 237 237
276 278 280 279 278 280 282 284 286 287 289 289 288 288 287 287 290 288 276 264 260 259 257 257 257 258 257 255 254 252 251 251 249 246 244 244 244 241 238 235 236 238
276 278 280 280 279 278 278 280 283 286 288 289 289 288 288 287 288 288 281 268 261 258 256 255 257 258 259 258 258 256 251 245 241 240 241 241 242 241 237 234 238 242
276 277 279 279 279 278 276 276 279 282 285 288 289 289 287 286 285 286 284 276 266 259 256 255 256 255 251 248 245 241 237 231 229 236 240 238 239 239 236 236 242 247
275 276 277 277 278 278 276 274 274 276 281 285 287 288 287 285 283 283 284 283 276 266 257 253 251 245 238 235 231 225 220 215 217 229 237 236 236 237 236 240 247 250